Terug naar catalogus

FREGAT DEB

LostHEO
NORAD 46624·DEBRIS·🇷🇺 Russia

Gelanceerd Jul 18, 2011 vanaf Baikonur Cosmodrome

Loading…

Volgende Passages (komende 24 uur)

TLE

VerouderdSource: Space-Track

Epoch: Dec 6, 2020, 00:09 UTC

1 46624U 11037MQ  20341.00665791  .00490684  00000-0  59176+0 0  9996
2 46624  52.2229  95.3696 2587818 226.0457 109.5791  9.50043537  6867

Volg FREGAT DEB in realtime met AllMySat

Download on the App Store